| time (UTC) | temp F | wind direction | speed knots | gust knots | rain 1hr in | rain 24hr in | rain mn in | humidity % | barometer mb |
| 20260906130056 | 70 | 107 | 6.1 | 9.6 | 0.00 | 0.00 | 0.00 | 83 | 1022.9 |
| 20260906124547 | 70 | 98 | 2.6 | 6.1 | 0.00 | 0.00 | 0.00 | 85 | 1023.1 |
| 20260906123047 | 69 | 79 | 2.6 | 4.3 | 0.00 | 0.00 | 0.00 | 88 | 1023.0 |
| 20260906121538 | 68 | 82 | 0.9 | 3.5 | 0.00 | 0.00 | 0.00 | 92 | 1022.8 |
| 20260906120034 | 0 | 0.0 | 0.0 | 0.00 | 0.00 | 0.00 | 1022.2 | ||
| 20260906114530 | 0 | 0.0 | 0.0 | 0.00 | 0.00 | 0.00 | 1022.1 | ||
| 20260906113026 | 0 | 0.0 | 0.0 | 0.00 | 0.00 | 0.00 | 1021.8 | ||
| 20260906111521 | 0 | 0.0 | 0.0 | 0.00 | 0.00 | 0.00 | 1021.7 | ||
| 20260906110016 | 0 | 0.0 | 0.0 | 0.00 | 0.00 | 0.00 | 1021.6 | ||
| 20260906104513 | 0 | 0.0 | 0.0 | 0.00 | 0.00 | 0.00 | 1021.6 | ||
| 20260906103008 | 0 | 0.0 | 0.0 | 0.00 | 0.00 | 0.00 | 1021.5 | ||
| 20260906101504 | 0 | 0.0 | 0.0 | 0.00 | 0.00 | 0.00 | 1021.5 | ||
| 20260906100111 | 0 | 0.0 | 0.0 | 0.00 | 0.00 | 0.00 | 1021.1 | ||
| 20260906094602 | 0 | 0.0 | 0.0 | 0.00 | 0.00 | 0.00 | 1021.1 | ||
| 20260906093057 | 0 | 0.0 | 0.0 | 0.00 | 0.00 | 0.00 | 1021.2 | ||
| 20260906091546 | 0 | 0.0 | 0.0 | 0.00 | 0.00 | 0.00 | 1021.2 | ||
| 20260906090044 | 0 | 0.0 | 0.0 | 0.00 | 0.00 | 0.00 | 1021.1 | ||
| 20260906084547 | 0 | 0.0 | 0.0 | 0.00 | 0.00 | 0.00 | 1021.1 | ||
| 20260906083034 | 0 | 0.0 | 0.0 | 0.00 | 0.00 | 0.00 | 1021.0 | ||
| 20260906081530 | 0 | 0.0 | 0.0 | 0.00 | 0.00 | 0.00 | 1021.0 | ||
| 20260906080026 | 65 | 308 | 0.9 | 2.6 | 0.00 | 0.00 | 0.00 | 1020.9 | |
| 20260906074523 | 65 | 308 | 0.0 | 2.6 | 0.00 | 0.00 | 0.00 | 95 | 1020.8 |
| 20260906073027 | 65 | 308 | 0.9 | 1.7 | 0.00 | 0.00 | 0.00 | 95 | 1020.8 |
| 20260906071522 | 65 | 308 | 0.9 | 2.6 | 0.00 | 0.00 | 0.00 | 95 | 1020.8 |
| 20260906070020 | 65 | 308 | 0.0 | 1.7 | 0.00 | 0.00 | 0.00 | 94 | 1020.7 |
| 20260906064527 | 65 | 308 | 0.0 | 1.7 | 0.00 | 0.00 | 0.00 | 94 | 1020.7 |
| 20260906063019 | 65 | 308 | 0.0 | 2.6 | 0.00 | 0.00 | 0.00 | 94 | 1020.8 |
| 20260906061518 | 65 | 308 | 0.9 | 1.7 | 0.00 | 0.00 | 0.00 | 94 | 1020.9 |
| 20260906060022 | 66 | 308 | 0.9 | 2.6 | 0.00 | 0.00 | 0.00 | 94 | 1020.7 |
| 20260906054517 | 66 | 308 | 0.9 | 2.6 | 0.00 | 0.00 | 0.00 | 94 | 1020.7 |
| 20260906053019 | 66 | 308 | 0.0 | 2.6 | 0.00 | 0.00 | 0.00 | 93 | 1020.6 |
| 20260906051510 | 67 | 341 | 0.9 | 3.5 | 0.00 | 0.00 | 0.00 | 93 | 1020.6 |
| 20260906050008 | 67 | 350 | 1.7 | 3.5 | 0.00 | 0.00 | 0.00 | 93 | 1020.5 |
| 20260906044506 | 67 | 11 | 0.9 | 3.5 | 0.00 | 0.00 | 0.00 | 92 | 1020.3 |
| 20260906043004 | 68 | 333 | 1.7 | 3.5 | 0.00 | 0.00 | 0.00 | 92 | 1020.2 |
| 20260906041501 | 69 | 26 | 2.6 | 5.2 | 0.00 | 0.00 | 0.00 | 91 | 1020.0 |
| 20260906040100 | 69 | 24 | 3.5 | 5.2 | 0.00 | 0.00 | 0.00 | 91 | 1020.0 |
| 20260906034559 | 69 | 13 | 2.6 | 4.3 | 0.00 | 0.00 | 0.00 | 90 | 1019.9 |
| 20260906033101 | 69 | 30 | 2.6 | 5.2 | 0.00 | 0.00 | 0.00 | 90 | 1019.9 |
| 20260906031601 | 70 | 37 | 2.6 | 5.2 | 0.00 | 0.00 | 0.00 | 90 | 1019.9 |
| 20260906030056 | 70 | 57 | 2.6 | 5.2 | 0.00 | 0.00 | 0.00 | 90 | 1019.9 |
| 20260906024555 | 69 | 66 | 3.5 | 9.6 | 0.00 | 0.00 | 0.00 | 90 | 1019.6 |
| 20260906023055 | 69 | 65 | 5.2 | 7.8 | 0.00 | 0.00 | 0.00 | 90 | 1019.6 |
| 20260906021558 | 70 | 50 | 2.6 | 7.8 | 0.00 | 0.00 | 0.00 | 89 | 1019.7 |
| 20260906020054 | 70 | 46 | 3.5 | 8.7 | 0.00 | 0.00 | 0.00 | 89 | 1019.9 |
| 20260906014549 | 70 | 80 | 2.6 | 7.0 | 0.00 | 0.00 | 0.00 | 89 | 1019.6 |
| 20260906013047 | 70 | 36 | 4.3 | 11.3 | 0.00 | 0.00 | 0.00 | 88 | 1019.6 |
| 20260906011553 | 71 | 54 | 5.2 | 11.3 | 0.00 | 0.00 | 0.00 | 88 | 1019.7 |
| 20260906010043 | 71 | 25 | 3.5 | 8.7 | 0.00 | 0.00 | 0.00 | 88 | 1019.6 |
| 20260906004544 | 71 | 29 | 2.6 | 5.2 | 0.00 | 0.00 | 0.00 | 88 | 1019.4 |
| 20260906003041 | 71 | 32 | 4.3 | 8.7 | 0.00 | 0.00 | 0.00 | 88 | 1019.2 |
| 20260906001541 | 71 | 17 | 5.2 | 13.0 | 0.00 | 0.00 | 0.00 | 88 | 1019.3 |
| 20260906000040 | 71 | 63 | 4.3 | 10.4 | 0.00 | 0.00 | 0.00 | 89 | 1019.2 |
| 20260905234637 | 71 | 28 | 6.1 | 13.9 | 0.00 | 0.00 | 0.00 | 89 | 1019.4 |
| 20260905233053 | 71 | 25 | 7.8 | 13.9 | 0.00 | 0.00 | 0.00 | 89 | 1019.4 |
| 20260905231548 | 72 | 45 | 7.0 | 13.0 | 0.00 | 0.00 | 0.00 | 88 | 1019.2 |
| 20260905230032 | 72 | 36 | 8.7 | 13.9 | 0.00 | 0.00 | 0.00 | 89 | 1019.2 |
| 20260905224530 | 72 | 54 | 5.2 | 13.9 | 0.00 | 0.00 | 0.00 | 88 | 1018.9 |
| 20260905223030 | 72 | 35 | 9.6 | 14.8 | 0.00 | 0.00 | 0.00 | 86 | 1018.9 |
| 20260905221535 | 73 | 36 | 7.0 | 12.2 | 0.00 | 0.00 | 0.00 | 85 | 1018.8 |
| 20260905220025 | 73 | 57 | 7.8 | 12.2 | 0.00 | 0.00 | 0.00 | 85 | 1018.6 |
| 20260905214524 | 74 | 74 | 6.1 | 10.4 | 0.00 | 0.00 | 0.00 | 83 | 1018.4 |
| 20260905213032 | 75 | 13 | 6.1 | 10.4 | 0.00 | 0.00 | 0.00 | 82 | 1018.1 |
| 20260905211523 | 76 | 42 | 6.1 | 13.0 | 0.00 | 0.00 | 0.00 | 83 | 1017.8 |
| 20260905210028 | 76 | 56 | 4.3 | 13.0 | 0.00 | 0.00 | 0.00 | 82 | 1017.9 |
| 20260905204523 | 76 | 57 | 7.8 | 11.3 | 0.00 | 0.00 | 0.00 | 83 | 1017.9 |
| 20260905203020 | 77 | 49 | 7.8 | 11.3 | 0.00 | 0.00 | 0.00 | 81 | 1017.8 |
| 20260905201526 | 78 | 38 | 6.1 | 10.4 | 0.00 | 0.00 | 0.00 | 81 | 1017.9 |
| 20260905200019 | 77 | 12 | 4.3 | 11.3 | 0.00 | 0.00 | 0.00 | 84 | 1018.1 |
| 20260905194519 | 79 | 72 | 7.0 | 13.0 | 0.00 | 0.00 | 0.00 | 78 | 1018.1 |
| 20260905193018 | 79 | 27 | 7.0 | 12.2 | 0.00 | 0.00 | 0.00 | 79 | 1017.9 |
| 20260905191517 | 78 | 74 | 3.5 | 7.8 | 0.00 | 0.00 | 0.00 | 79 | 1018.1 |
| 20260905190016 | 78 | 58 | 3.5 | 9.6 | 0.00 | 0.00 | 0.00 | 79 | 1018.1 |
| 20260905184517 | 78 | 28 | 1.7 | 7.8 | 0.00 | 0.00 | 0.00 | 83 | 1018.3 |
| 20260905183012 | 77 | 70 | 4.3 | 9.6 | 0.00 | 0.00 | 0.00 | 83 | 1018.5 |
| 20260905181511 | 77 | 57 | 5.2 | 9.6 | 0.00 | 0.00 | 0.00 | 83 | 1018.4 |
| 20260905180010 | 77 | 25 | 4.3 | 9.6 | 0.00 | 0.00 | 0.00 | 83 | 1018.3 |
| 20260905174512 | 76 | 26 | 4.3 | 9.6 | 0.00 | 0.00 | 0.00 | 86 | 1018.4 |
| 20260905173017 | 75 | 13 | 4.3 | 9.6 | 0.00 | 0.00 | 0.00 | 86 | 1018.5 |
| 20260905171504 | 75 | 14 | 5.2 | 8.7 | 0.00 | 0.00 | 0.00 | 87 | 1018.5 |
| 20260905170003 | 75 | 19 | 5.2 | 9.6 | 0.00 | 0.00 | 0.00 | 87 | 1018.6 |
| 20260905164501 | 75 | 16 | 6.1 | 13.0 | 0.00 | 0.00 | 0.00 | 87 | 1018.7 |
| 20260905163200 | 76 | 53 | 4.3 | 9.6 | 0.00 | 0.00 | 0.00 | 86 | 1018.6 |
| 20260905161559 | 75 | 37 | 5.2 | 8.7 | 0.00 | 0.00 | 0.00 | 86 | 1018.6 |
| 20260905160054 | 75 | 41 | 6.1 | 9.6 | 0.00 | 0.16 | 0.00 | 86 | 1018.7 |
| 20260905154553 | 75 | 9 | 4.3 | 8.7 | 0.00 | 0.16 | 0.00 | 87 | 1018.4 |
| 20260905153051 | 75 | 68 | 4.3 | 9.6 | 0.00 | 0.16 | 0.00 | 86 | 1018.6 |
| 20260905151548 | 74 | 52 | 6.1 | 11.3 | 0.00 | 0.16 | 0.00 | 88 | 1018.3 |
| 20260905150046 | 74 | 51 | 5.2 | 9.6 | 0.00 | 0.18 | 0.00 | 88 | 1018.2 |
| 20260905144546 | 75 | 65 | 3.5 | 8.7 | 0.00 | 0.18 | 0.00 | 86 | 1018.0 |
| 20260905143044 | 74 | 86 | 6.1 | 9.6 | 0.00 | 0.18 | 0.00 | 87 | 1017.6 |
| 20260905141547 | 74 | 45 | 2.6 | 10.4 | 0.00 | 0.18 | 0.00 | 89 | 1017.8 |
| 20260905140041 | 74 | 68 | 2.6 | 7.8 | 0.00 | 0.18 | 0.00 | 89 | 1017.7 |
| 20260905134539 | 74 | 74 | 3.5 | 7.8 | 0.00 | 0.18 | 0.00 | 89 | 1017.6 |
| 20260905133036 | 0 | 0.0 | 0.0 | 0.00 | 0.18 | 0.00 | 1017.8 | ||
| 20260905131546 | 0 | 0.0 | 0.0 | 0.00 | 0.18 | 0.00 | 1017.9 |